SCP
0 0 0 0 0 0 0 0 0 0 0 0 0 -0 -0 -0 0 -0 0 0 -0 -0 0 0 -0 0 -0 -0 -0 -0 -0 -0 -0 -0 -0 -0 -0 -0 -0 -0 -0 -0 -0 -0 -0 -0 -0 -0 -0
0 0 0 0 0 0 0 0 0 0 -0 -0 -0 -0 -0 0 0 0 0 -0 -0 -0 -0 -0 -0 0 0 -0 -0 -0 0 -0 -0 -0 -0 -0 -0 -0 -0 -0 -0 -0 -0 -0 -0 -0 -0 -0 -0
0 0 0 0 0 0 0 0 0 0 -0 -0 -0 -0 0 0 0 0 -0 -0 -0 -0 -0 0 0 0 0 -0 0 0 0 0 -0 -0 -0 -0 -0 -0 -0 -0 -0 -0 -0 -0 -0 -0 -0 -0 -0
0 0 0 0 0 0 0 0 0 0 0 -0 -0 -0 0 0 0 -0 -0 -0 -0 0 0 0 0 0 -0 -0 0 0 0 -0 -0 -0 -0 -0 -0 -0 -0 -0 -0 -0 -0 -0 -0 -0 -0 -0 -0
0 0 0 0 0 0 0 0 0 0 0 0 0 0 0 0 -0 -0 -0 -0 -0 0 0 0 0 0 -0 0 0 0 0 -0 -0 -0 -0 -0 -0 -0 -0 -0 -0 -0 -0 -0 -0 -0 -0 -0 -0
0 0 0 0 0 0 0 0 0 0 0 0 0 0 0 -0 -0 -0 -0 -0 -0 0 0 0 0 0 0 0 0 0 0 -0 -0 -0 -0 -0 -0 -0 -0 0 -0 -0 -0 -0 -0 -0 -0 -0 -0
0 0 0 0 0 0 0 0 0 0 0 0 0 0 0 -0 0 -0 0 -0 -0 0 0 0 0 0 0 0 0 0 0 0 -0 -0 -0 -0 -0 -0 0 -0 -0 -0 -0 -0 -0 -0 0 -0 -0
0 0 0 0 0 0 0 0 0 0 0 0 0 -0 0 -0 0 -0 0 -0 -0 0 0 0 0 0 0 0 0 0 0 0 0 0 0 0 -0 -0 -0 -0 -0 -0 -0 -0 -0 -0 -0 -0 -0
0 0 0 0 0 0 0 0 0 0 0 0 0 0 0 -0 0 -0 0 -0 -0 0 0 0 0 0 0 0 0 0 0 0 0 0 0 0 -0 -0 -0 -0 -0 -0 -0 -0 0 0 0 0 0
0 0 0 0 0 0 0 0 0 0 0 0 0 0 0 -0 0 -0 0 -0 -0 -0 0 0 0 0 0 0 0 0 0 0 -0 0 -0 -0 -0 -0 -0 -0 -0 -0 0 0 0 0 0 0 0
0 0 0 0 0 0 0 0 0 0 0 0 0 0 -0 0 0 0 0 -0 0 -0 -0 -0 -0 0 0 0 0 0 0 0 -0 -0 -0 0 0 -0 0 0 0 0 0 0 0 0 0 0 0
0 0 0 0 0 0 0 0 0 0 0 0 0 -0 0 -0 0 0 0 0 0 0 0 -0 -0 0 0 0 0 0 0 -0 -0 -0 0 0 0 0 0 0 0 0 0 0 0 0 0 0 0
0 0 0 0 0 0 0 0 0 0 0 0 0 0 0 0 0 -0 0 0 0 0 0 0 -0 -0 0 0 0 0 0 0 0 0 -0 -0 -0 -0 0 0 0 0 0 0 0 0 0 0 0
0 0 0 0 0 0 0 0 0 0 0 0 0 0 0 0 0 0 0 0 0 0 0 0 0 -0 -0 0 0 0 0 0 0 -0 -0 -0 0 0 0 0 0 0 0 0 0 0 0 0 0
0 0 0 0 0 0 0 0 0 0 0 0 0 0 0 0 0 0 0 0 0 0 0 0 0 0 0 0 0 -0 -0 0 -0 -0 -0 0 0 0 0 0 0 0 0 0 0 0 0 0 0
0 0 0 0 0 0 0 0 0 0 0 0 0 0 0 0 0 0 0 0 0 0 0 0 0 0 0 0 0 -0 0 0 0 0 0 0 0 0 0 0 0 0 0 0 0 0 0 0 0
0 0 0 0 0 0 0 0 0 0 0 0 0 0 0 0 0 0 0 0 0 0 0 0 0 0 0 0 0 0 0 0 0 0 0 0 0 0 0 0 0 0 0 0 0 0 0 0 0
0 0 0 0 0 0 0 0 0 0 0 0 0 0 0 0 -0 -0 0 0 0 0 0 0 0 0 0 0 0 0 0 0 0 0 0 0 0 0 0 0 0 0 0 0 0 0 0 0 0
0 0 0 0 0 0 0 0 0 0 0 0 0 0 0 0 0 0 -0 -0 0 0 0 0 0 0 0 0 0 0 0 0 0 0 0 0 0 0 0 0 0 0 0 0 0 0 0 0 0
0 0 0 0 0 0 0 0 0 0 0 0 0 0 0 0 0 0 0 -0 -0 0 0 0 0 0 0 0 0 0 0 0 0 0 0 0 0 0 0 0 0 0 0 0 0 0 0 0 0
0 0 0 0 0 0 0 0 0 0 0 0 0 0 0 0 0 0 0 -0 0 0 0 0 0 0 0 0 0 0 0 0 0 0 0 0 0 0 0 0 0 0 0 0 0 0 0 0 0
0 0 0 0 0 0 0 0 0 0 0 0 0 0 0 0 0 0 0 0 0 0 0 0 0 0 0 0 0 0 0 0 0 0 0 0 0 0 0 0 0 0 0 0 0 0 0 0 0
0 0 0 0 0 0 0 0 0 0 0 0 0 0 0 0 0 0 0 0 0 0 0 0 0 0 0 0 0 0 0 0 0 0 0 0 0 0 0 0 0 0 0 0 0 0 0 0 0
0 0 0 0 0 0 0 0 0 0 0 0 0 0 0 0 0 0 0 0 0 0 0 0 0 0 0 0 0 0 0 0 0 0 0 0 0 0 0 0 0 0 0 0 0 0 0 0 0
0 0 0 0 0 0 0 0 0 0 0 0 0 0 0 0 0 0 0 0 0 0 0 0 0 0 0 0 0 0 0 0 0 0 0 0 0 0 0 0 0 0 0 0 0 0 0 0 0
0 0 0 0 0 0 0 0 0 0 0 0 0 0 0 0 0 0 0 0 0 0 0 0 0 0 0 0 0 0 0 0 0 0 0 0 0 0 0 0 0 0 0 0 0 0 0 0 0
0 0 0 0 0 0 0 0 0 0 0 0 0 0 0 0 0 0 0 0 0 0 0 0 0 0 0 0 0 0 0 0 0 0 0 0 0 0 0 0 0 0 0 0 0 0 0 0 0
0 0 0 0 0 0 0 0 0 0 0 0 0 0 0 0 0 0 0 0 0 0 0 0 0 0 0 0 0 0 0 0 0 0 0 0 0 0 0 0 0 0 0 0 0 0 0 0 0
0 0 0 0 0 0 0 0 0 0 0 0 0 0 0 0 0 0 0 0 0 0 0 0 0 0 0 0 0 0 0 0 0 0 0 0 0 0 0 0 0 0 0 0 0 0 0 0 0
0 0 0 0 0 0 0 0 0 -0 0 0 0 0 0 0 0 0 0 0 0 0 0 0 0 0 0 0 0 0 0 0 0 0 0 0 0 0 0 0 0 0 0 0 0 0 0 0 0
Wind_Speed_500mb
6 7 5 4 8 10 3 7 3 6 5 9 16 16 17 12 6 6 34 29 36 34 28 25 21 21 20 20 18 21 20 24 24 26 29 26 23 25 23 26 33 36 38 41 37 36 32 29 28
7 6 3 5 9 4 9 6 11 6 26 37 29 21 13 5 10 30 37 30 31 31 25 23 26 29 25 22 17 18 22 25 30 25 22 26 27 27 26 34 35 37 34 28 34 32 27 24 21
9 4 2 8 7 8 9 7 10 18 34 7 14 21 7 10 22 48 25 34 32 32 26 25 29 33 28 23 16 17 20 22 30 27 23 22 26 28 28 32 35 32 31 26 24 26 24 17 17
4 4 5 8 7 9 11 12 16 20 11 6 35 16 13 10 37 25 35 31 33 33 28 31 34 33 30 23 17 15 18 22 27 25 22 25 26 27 26 29 30 29 27 24 20 24 18 13 13
6 2 6 5 6 5 6 21 25 9 9 19 12 9 9 27 16 30 35 27 28 32 30 35 36 31 31 23 16 17 18 21 23 20 20 24 26 26 31 30 23 24 24 20 23 19 13 10 12
4 4 8 4 7 5 3 27 18 8 16 20 20 16 11 25 25 39 30 28 27 32 35 40 36 33 32 23 17 19 20 21 22 21 21 23 26 26 27 28 19 23 23 23 22 20 15 9 10
7 7 9 9 5 1 8 20 11 16 17 10 36 10 16 37 37 35 28 28 33 35 40 43 39 34 30 22 19 20 21 21 20 21 22 21 23 25 24 24 20 21 21 21 17 16 13 10 9
4 9 10 5 11 10 13 23 17 33 9 33 29 15 16 53 47 37 29 28 36 38 40 42 39 34 32 25 23 22 21 20 20 20 20 20 21 21 20 19 18 17 16 15 15 14 11 10 11
4 7 6 11 13 7 22 9 19 12 31 18 20 20 30 59 55 44 36 35 38 39 40 41 38 34 30 25 25 22 20 19 18 18 19 19 18 17 17 16 15 14 13 15 14 13 12 11 14
6 6 17 13 12 11 29 22 26 15 22 11 21 18 59 65 60 57 50 45 45 45 44 41 39 35 30 26 24 22 19 17 17 16 17 17 16 16 15 14 14 13 13 12 12 12 12 13 14
6 8 10 11 15 16 34 21 24 24 7 22 38 48 81 70 63 60 54 51 47 44 44 43 39 36 33 30 26 23 20 17 16 15 14 13 13 14 13 12 11 11 11 11 11 11 11 11 10
5 12 10 7 10 20 22 29 18 33 12 28 39 49 84 77 71 65 60 56 51 48 44 43 41 36 33 30 27 24 21 18 16 13 12 9 9 9 9 8 8 7 8 9 10 10 10 10 9
7 8 12 13 9 18 22 11 14 34 11 22 42 72 84 77 71 66 56 52 52 51 47 44 41 38 36 33 30 27 23 20 17 15 12 9 7 5 3 3 4 4 6 7 8 9 10 13 15
17 41 24 12 14 21 19 8 15 31 18 37 54 80 79 75 72 68 63 58 56 51 50 46 43 39 37 34 32 27 26 23 20 16 13 11 9 5 3 3 4 6 7 8 10 10 12 14 15
33 21 12 10 12 11 18 1 13 23 33 52 61 75 75 72 71 70 64 59 53 49 44 47 43 43 40 37 33 32 26 25 23 19 17 15 13 11 10 9 8 9 9 10 11 13 16 15 17
7 14 11 7 11 3 15 19 12 29 49 60 66 70 71 72 75 71 65 59 54 49 47 40 41 41 39 41 38 35 31 29 23 20 20 19 18 17 17 14 13 14 13 13 14 17 17 19 24
5 17 11 7 12 5 7 13 14 35 51 62 67 68 66 65 74 75 67 63 59 53 50 47 43 40 37 36 34 36 33 33 26 25 21 20 21 23 20 18 18 17 14 14 18 18 26 28 33
28 17 10 10 12 3 9 12 4 42 53 62 67 67 66 62 70 73 73 67 61 57 53 49 46 43 41 37 37 40 41 36 35 35 30 27 25 21 19 18 15 14 13 19 22 28 29 35 42
1 7 11 7 8 10 16 17 17 33 40 48 61 67 65 63 60 63 67 70 66 63 59 56 56 48 47 47 48 47 50 48 46 41 38 36 32 26 22 21 20 19 20 25 26 31 35 39 40
4 5 9 4 1 4 10 25 9 21 33 60 67 67 69 66 64 62 64 65 66 65 66 64 63 57 52 51 47 47 41 49 49 47 47 47 38 33 31 26 26 27 29 29 30 32 36 40 37
18 9 13 14 7 6 7 14 9 13 30 37 59 65 70 69 70 68 69 71 69 72 72 70 65 61 57 51 48 50 43 45 48 48 45 40 33 30 32 31 32 32 33 33 31 30 31 34 34
33 14 18 5 12 15 9 12 13 16 17 21 58 60 66 66 68 68 69 72 75 73 69 67 62 63 58 52 52 54 54 46 45 40 36 33 34 35 35 33 30 28 30 28 25 26 28 30 35
11 5 2 6 8 8 8 3 12 4 30 17 44 64 65 64 68 70 70 71 68 73 74 72 68 66 63 57 53 51 48 37 32 37 35 34 34 33 31 29 27 25 23 23 23 23 25 25 23
11 17 11 6 8 13 20 16 12 14 16 25 43 74 72 65 68 67 67 70 71 71 73 75 74 72 71 66 61 53 48 41 40 35 31 35 32 28 27 25 23 24 24 21 13 12 14 15 18
13 16 5 3 5 23 3 10 29 10 15 17 39 76 81 69 63 70 74 74 74 72 71 71 73 73 72 71 68 60 52 46 41 38 36 34 31 29 27 24 23 20 13 9 9 8 12 17 22
37 24 10 16 18 26 3 15 14 14 17 25 27 41 72 68 66 73 74 72 70 68 68 69 73 74 71 69 67 61 55 51 47 45 41 35 33 30 28 25 18 12 7 5 8 13 16 20 24
29 26 16 5 7 4 9 14 19 8 12 17 26 33 60 82 76 72 71 70 68 67 66 67 70 73 72 69 69 64 59 57 52 47 41 39 37 34 27 21 17 14 10 8 11 16 19 22 24
11 19 15 5 9 9 8 10 14 11 19 14 18 49 61 81 75 71 68 64 61 60 57 55 57 60 64 64 66 64 60 57 52 45 42 42 39 32 27 23 18 13 9 11 14 16 19 24 30
19 23 15 7 7 10 4 12 18 23 27 27 40 60 68 82 75 67 60 57 53 51 50 48 48 49 52 57 65 68 63 57 54 47 43 41 39 35 30 24 17 13 11 11 14 17 22 28 35
19 32 24 22 17 3 5 12 5 13 10 13 20 48 55 66 62 57 54 52 50 50 49 48 48 49 52 59 67 67 69 63 47 45 45 43 40 35 26 19 15 12 11 11 15 22 28 33 36
Wind_Direction_500mb
274 272 254 201 60 62 273 229 164 175 103 76 98 118 119 68 120 190 140 148 161 164 156 156 157 150 137 119 95 85 84 95 94 93 100 109 115 112 105 105 99 91 93 98 98 94 95 90 86
266 262 201 95 88 70 266 260 171 215 136 109 85 87 53 80 113 141 148 152 164 168 160 150 147 148 143 128 97 91 93 96 97 96 86 97 102 101 99 98 99 98 97 96 103 102 99 99 95
269 219 196 97 107 180 210 213 161 139 146 141 111 78 80 123 139 148 147 156 167 169 163 157 150 152 146 133 106 87 95 107 111 106 106 96 97 98 97 102 97 99 106 102 116 133 100 102 91
244 171 70 92 207 241 198 193 157 144 132 108 112 74 95 112 143 164 160 156 162 165 162 153 153 155 150 139 112 107 113 114 125 122 99 96 97 102 97 97 103 104 101 104 100 104 95 80 72
221 155 65 88 262 254 246 170 165 141 119 124 114 148 110 154 166 160 154 158 169 168 161 156 158 161 155 146 126 117 111 110 119 125 108 96 95 100 98 96 96 100 98 93 95 106 107 88 56
167 106 72 189 255 320 155 167 166 126 131 136 114 110 135 171 169 157 156 160 167 172 163 160 159 155 159 151 126 118 117 117 118 117 110 97 98 99 103 100 92 87 84 84 91 92 93 66 44
141 96 185 180 212 112 192 184 176 151 140 164 143 91 145 174 170 158 161 162 165 166 163 163 164 163 161 148 135 124 123 120 115 109 104 103 99 101 98 94 94 81 77 76 85 92 92 73 27
183 98 136 205 186 216 179 167 198 159 166 146 150 160 170 177 166 161 164 170 165 163 163 165 168 163 161 153 141 129 127 126 120 112 109 104 98 94 94 90 84 79 77 74 72 71 66 52 34
168 68 167 199 163 226 159 138 163 151 149 165 190 174 177 169 164 164 169 171 169 167 165 167 170 166 161 153 145 141 138 127 120 115 108 102 97 96 90 88 83 78 72 63 61 60 52 41 36
140 135 205 207 191 196 174 172 165 154 154 190 180 171 165 167 171 168 175 179 177 173 170 171 174 172 165 160 156 153 144 136 126 119 114 111 109 103 96 89 80 70 66 59 56 49 39 36 31
182 201 213 228 236 201 175 170 172 156 215 194 181 167 168 172 177 178 179 187 184 179 176 173 175 176 171 171 166 164 161 156 146 137 128 121 111 102 97 91 84 75 64 52 42 37 30 27 25
313 251 221 231 224 172 170 167 170 180 200 212 193 187 172 176 182 188 185 186 189 189 184 179 178 180 178 180 177 176 174 171 164 157 148 130 114 101 94 89 76 55 41 30 19 12 11 7 6
151 315 265 252 206 190 167 185 203 195 206 188 178 178 177 181 186 191 194 191 192 193 190 189 186 187 189 189 189 187 186 183 183 180 171 163 155 138 101 62 35 22 7 354 348 341 340 342 340
349 314 286 246 205 177 153 173 180 202 183 172 175 181 184 186 191 193 198 198 199 197 196 195 195 196 198 196 199 198 197 196 197 199 199 200 202 205 233 272 302 316 322 328 325 318 322 327 332
353 320 299 249 203 177 147 345 231 197 184 175 182 185 189 193 197 200 199 203 204 203 202 206 207 207 206 205 206 207 204 207 210 213 217 222 227 234 247 257 271 283 298 314 329 327 329 336 332
24 289 258 271 167 208 154 236 234 191 178 183 186 190 195 198 204 206 207 207 208 212 211 214 215 214 215 217 210 211 216 221 214 223 230 235 238 242 250 259 268 277 290 303 313 325 333 331 322
286 240 220 277 202 138 163 239 209 192 187 192 193 197 200 202 208 212 212 213 213 216 218 219 221 223 223 223 227 217 219 225 228 233 236 236 241 238 243 250 259 271 290 307 307 321 318 318 312
183 230 233 192 213 188 197 259 230 190 194 204 201 204 204 207 212 211 215 218 219 221 222 226 226 224 223 226 231 224 223 225 229 235 242 237 243 248 251 250 263 285 301 297 297 298 308 310 310
48 233 196 222 211 145 211 228 226 202 204 208 211 210 210 209 213 214 214 218 221 223 222 221 224 224 222 221 222 222 229 228 231 233 235 242 247 251 262 274 278 281 279 285 294 301 305 301 312
187 329 217 302 112 152 211 237 247 185 217 214 210 214 217 217 216 214 213 212 215 220 224 225 228 229 228 228 232 239 239 233 236 240 242 247 252 254 261 268 272 276 280 284 289 296 297 309 315
214 223 229 234 155 94 119 279 229 233 230 232 226 226 223 221 222 217 217 218 219 223 226 228 229 231 231 234 233 235 236 233 231 233 237 242 246 252 262 266 267 271 275 279 285 292 298 302 309
201 219 257 181 170 217 176 256 238 217 230 219 231 227 231 225 227 223 219 221 222 223 224 227 230 230 230 233 233 236 240 244 231 234 240 240 246 250 256 260 264 263 266 273 279 287 289 297 301
211 35 234 247 233 161 224 206 261 139 228 235 235 228 228 225 220 219 218 221 221 222 224 226 227 227 228 230 231 234 238 244 238 234 234 238 240 244 242 244 249 256 262 269 274 277 277 290 305
96 69 34 41 348 235 213 183 237 199 199 228 232 232 229 223 217 219 218 220 220 219 221 224 225 226 227 227 230 230 236 234 231 233 232 230 234 235 236 241 249 254 258 259 271 286 299 314 320
87 120 132 202 217 239 278 195 233 202 220 210 221 225 223 219 216 212 213 216 217 218 221 224 228 229 229 227 226 226 231 232 236 236 234 231 228 231 232 239 244 252 249 260 281 301 319 320 322
189 174 183 176 197 215 55 234 238 222 220 229 238 246 228 211 211 210 211 213 215 218 223 227 230 230 228 225 221 217 226 230 229 234 232 226 224 223 226 228 227 224 225 246 292 305 315 321 325
186 208 221 76 41 95 211 278 300 237 252 235 232 224 219 208 208 208 207 212 217 224 232 236 234 231 227 222 215 211 218 225 227 227 229 222 220 218 219 202 193 193 211 256 289 304 314 320 328
183 181 202 214 163 218 256 266 228 227 249 236 226 215 213 206 207 208 209 216 223 229 231 228 224 223 220 215 209 207 212 216 216 219 217 210 210 207 192 186 190 208 241 276 296 310 319 325 328
185 209 213 213 165 185 183 256 207 209 209 203 224 219 206 203 204 208 212 216 220 221 218 215 209 208 210 206 205 205 203 205 223 215 199 201 192 184 185 191 203 229 260 288 303 314 323 327 325
199 224 213 216 212 244 168 269 219 256 279 235 213 213 209 205 202 207 211 211 210 211 208 205 201 202 203 199 199 203 206 211 224 190 184 180 182 183 187 204 220 243 264 287 310 320 324 326 323
Wind_Speed_850mb
6 7 5 4 8 10 3 7 3 6 5 9 16 16 17 12 6 6 34 29 36 34 28 25 21 21 20 20 18 21 20 24 24 26 29 26 23 25 23 26 33 36 38 41 37 36 32 29 28
7 6 3 5 9 4 9 6 11 6 26 37 29 21 13 5 10 30 37 30 31 31 25 23 26 29 25 22 17 18 22 25 30 25 22 26 27 27 26 34 35 37 34 28 34 32 27 24 21
9 4 2 8 7 8 9 7 10 18 34 7 14 21 7 10 22 48 25 34 32 32 26 25 29 33 28 23 16 17 20 22 30 27 23 22 26 28 28 32 35 32 31 26 24 26 24 17 17
4 4 5 8 7 9 11 12 16 20 11 6 35 16 13 10 37 25 35 31 33 33 28 31 34 33 30 23 17 15 18 22 27 25 22 25 26 27 26 29 30 29 27 24 20 24 18 13 13
6 2 6 5 6 5 6 21 25 9 9 19 12 9 9 27 16 30 35 27 28 32 30 35 36 31 31 23 16 17 18 21 23 20 20 24 26 26 31 30 23 24 24 20 23 19 13 10 12
4 4 8 4 7 5 3 27 18 8 16 20 20 16 11 25 25 39 30 28 27 32 35 40 36 33 32 23 17 19 20 21 22 21 21 23 26 26 27 28 19 23 23 23 22 20 15 9 10
7 7 9 9 5 1 8 20 11 16 17 10 36 10 16 37 37 35 28 28 33 35 40 43 39 34 30 22 19 20 21 21 20 21 22 21 23 25 24 24 20 21 21 21 17 16 13 10 9
4 9 10 5 11 10 13 23 17 33 9 33 29 15 16 53 47 37 29 28 36 38 40 42 39 34 32 25 23 22 21 20 20 20 20 20 21 21 20 19 18 17 16 15 15 14 11 10 11
4 7 6 11 13 7 22 9 19 12 31 18 20 20 30 59 55 44 36 35 38 39 40 41 38 34 30 25 25 22 20 19 18 18 19 19 18 17 17 16 15 14 13 15 14 13 12 11 14
6 6 17 13 12 11 29 22 26 15 22 11 21 18 59 65 60 57 50 45 45 45 44 41 39 35 30 26 24 22 19 17 17 16 17 17 16 16 15 14 14 13 13 12 12 12 12 13 14
6 8 10 11 15 16 34 21 24 24 7 22 38 48 81 70 63 60 54 51 47 44 44 43 39 36 33 30 26 23 20 17 16 15 14 13 13 14 13 12 11 11 11 11 11 11 11 11 10
5 12 10 7 10 20 22 29 18 33 12 28 39 49 84 77 71 65 60 56 51 48 44 43 41 36 33 30 27 24 21 18 16 13 12 9 9 9 9 8 8 7 8 9 10 10 10 10 9
7 8 12 13 9 18 22 11 14 34 11 22 42 72 84 77 71 66 56 52 52 51 47 44 41 38 36 33 30 27 23 20 17 15 12 9 7 5 3 3 4 4 6 7 8 9 10 13 15
17 41 24 12 14 21 19 8 15 31 18 37 54 80 79 75 72 68 63 58 56 51 50 46 43 39 37 34 32 27 26 23 20 16 13 11 9 5 3 3 4 6 7 8 10 10 12 14 15
33 21 12 10 12 11 18 1 13 23 33 52 61 75 75 72 71 70 64 59 53 49 44 47 43 43 40 37 33 32 26 25 23 19 17 15 13 11 10 9 8 9 9 10 11 13 16 15 17
7 14 11 7 11 3 15 19 12 29 49 60 66 70 71 72 75 71 65 59 54 49 47 40 41 41 39 41 38 35 31 29 23 20 20 19 18 17 17 14 13 14 13 13 14 17 17 19 24
5 17 11 7 12 5 7 13 14 35 51 62 67 68 66 65 74 75 67 63 59 53 50 47 43 40 37 36 34 36 33 33 26 25 21 20 21 23 20 18 18 17 14 14 18 18 26 28 33
28 17 10 10 12 3 9 12 4 42 53 62 67 67 66 62 70 73 73 67 61 57 53 49 46 43 41 37 37 40 41 36 35 35 30 27 25 21 19 18 15 14 13 19 22 28 29 35 42
1 7 11 7 8 10 16 17 17 33 40 48 61 67 65 63 60 63 67 70 66 63 59 56 56 48 47 47 48 47 50 48 46 41 38 36 32 26 22 21 20 19 20 25 26 31 35 39 40
4 5 9 4 1 4 10 25 9 21 33 60 67 67 69 66 64 62 64 65 66 65 66 64 63 57 52 51 47 47 41 49 49 47 47 47 38 33 31 26 26 27 29 29 30 32 36 40 37
18 9 13 14 7 6 7 14 9 13 30 37 59 65 70 69 70 68 69 71 69 72 72 70 65 61 57 51 48 50 43 45 48 48 45 40 33 30 32 31 32 32 33 33 31 30 31 34 34
33 14 18 5 12 15 9 12 13 16 17 21 58 60 66 66 68 68 69 72 75 73 69 67 62 63 58 52 52 54 54 46 45 40 36 33 34 35 35 33 30 28 30 28 25 26 28 30 35
11 5 2 6 8 8 8 3 12 4 30 17 44 64 65 64 68 70 70 71 68 73 74 72 68 66 63 57 53 51 48 37 32 37 35 34 34 33 31 29 27 25 23 23 23 23 25 25 23
11 17 11 6 8 13 20 16 12 14 16 25 43 74 72 65 68 67 67 70 71 71 73 75 74 72 71 66 61 53 48 41 40 35 31 35 32 28 27 25 23 24 24 21 13 12 14 15 18
13 16 5 3 5 23 3 10 29 10 15 17 39 76 81 69 63 70 74 74 74 72 71 71 73 73 72 71 68 60 52 46 41 38 36 34 31 29 27 24 23 20 13 9 9 8 12 17 22
37 24 10 16 18 26 3 15 14 14 17 25 27 41 72 68 66 73 74 72 70 68 68 69 73 74 71 69 67 61 55 51 47 45 41 35 33 30 28 25 18 12 7 5 8 13 16 20 24
29 26 16 5 7 4 9 14 19 8 12 17 26 33 60 82 76 72 71 70 68 67 66 67 70 73 72 69 69 64 59 57 52 47 41 39 37 34 27 21 17 14 10 8 11 16 19 22 24
11 19 15 5 9 9 8 10 14 11 19 14 18 49 61 81 75 71 68 64 61 60 57 55 57 60 64 64 66 64 60 57 52 45 42 42 39 32 27 23 18 13 9 11 14 16 19 24 30
19 23 15 7 7 10 4 12 18 23 27 27 40 60 68 82 75 67 60 57 53 51 50 48 48 49 52 57 65 68 63 57 54 47 43 41 39 35 30 24 17 13 11 11 14 17 22 28 35
19 32 24 22 17 3 5 12 5 13 10 13 20 48 55 66 62 57 54 52 50 50 49 48 48 49 52 59 67 67 69 63 47 45 45 43 40 35 26 19 15 12 11 11 15 22 28 33 36
Wind_Direction_850mb
274 272 254 201 60 62 273 229 164 175 103 76 98 118 119 68 120 190 140 148 161 164 156 156 157 150 137 119 95 85 84 95 94 93 100 109 115 112 105 105 99 91 93 98 98 94 95 90 86
266 262 201 95 88 70 266 260 171 215 136 109 85 87 53 80 113 141 148 152 164 168 160 150 147 148 143 128 97 91 93 96 97 96 86 97 102 101 99 98 99 98 97 96 103 102 99 99 95
269 219 196 97 107 180 210 213 161 139 146 141 111 78 80 123 139 148 147 156 167 169 163 157 150 152 146 133 106 87 95 107 111 106 106 96 97 98 97 102 97 99 106 102 116 133 100 102 91
244 171 70 92 207 241 198 193 157 144 132 108 112 74 95 112 143 164 160 156 162 165 162 153 153 155 150 139 112 107 113 114 125 122 99 96 97 102 97 97 103 104 101 104 100 104 95 80 72
221 155 65 88 262 254 246 170 165 141 119 124 114 148 110 154 166 160 154 158 169 168 161 156 158 161 155 146 126 117 111 110 119 125 108 96 95 100 98 96 96 100 98 93 95 106 107 88 56
167 106 72 189 255 320 155 167 166 126 131 136 114 110 135 171 169 157 156 160 167 172 163 160 159 155 159 151 126 118 117 117 118 117 110 97 98 99 103 100 92 87 84 84 91 92 93 66 44
141 96 185 180 212 112 192 184 176 151 140 164 143 91 145 174 170 158 161 162 165 166 163 163 164 163 161 148 135 124 123 120 115 109 104 103 99 101 98 94 94 81 77 76 85 92 92 73 27
183 98 136 205 186 216 179 167 198 159 166 146 150 160 170 177 166 161 164 170 165 163 163 165 168 163 161 153 141 129 127 126 120 112 109 104 98 94 94 90 84 79 77 74 72 71 66 52 34
168 68 167 199 163 226 159 138 163 151 149 165 190 174 177 169 164 164 169 171 169 167 165 167 170 166 161 153 145 141 138 127 120 115 108 102 97 96 90 88 83 78 72 63 61 60 52 41 36
140 135 205 207 191 196 174 172 165 154 154 190 180 171 165 167 171 168 175 179 177 173 170 171 174 172 165 160 156 153 144 136 126 119 114 111 109 103 96 89 80 70 66 59 56 49 39 36 31
182 201 213 228 236 201 175 170 172 156 215 194 181 167 168 172 177 178 179 187 184 179 176 173 175 176 171 171 166 164 161 156 146 137 128 121 111 102 97 91 84 75 64 52 42 37 30 27 25
313 251 221 231 224 172 170 167 170 180 200 212 193 187 172 176 182 188 185 186 189 189 184 179 178 180 178 180 177 176 174 171 164 157 148 130 114 101 94 89 76 55 41 30 19 12 11 7 6
151 315 265 252 206 190 167 185 203 195 206 188 178 178 177 181 186 191 194 191 192 193 190 189 186 187 189 189 189 187 186 183 183 180 171 163 155 138 101 62 35 22 7 354 348 341 340 342 340
349 314 286 246 205 177 153 173 180 202 183 172 175 181 184 186 191 193 198 198 199 197 196 195 195 196 198 196 199 198 197 196 197 199 199 200 202 205 233 272 302 316 322 328 325 318 322 327 332
353 320 299 249 203 177 147 345 231 197 184 175 182 185 189 193 197 200 199 203 204 203 202 206 207 207 206 205 206 207 204 207 210 213 217 222 227 234 247 257 271 283 298 314 329 327 329 336 332
24 289 258 271 167 208 154 236 234 191 178 183 186 190 195 198 204 206 207 207 208 212 211 214 215 214 215 217 210 211 216 221 214 223 230 235 238 242 250 259 268 277 290 303 313 325 333 331 322
286 240 220 277 202 138 163 239 209 192 187 192 193 197 200 202 208 212 212 213 213 216 218 219 221 223 223 223 227 217 219 225 228 233 236 236 241 238 243 250 259 271 290 307 307 321 318 318 312
183 230 233 192 213 188 197 259 230 190 194 204 201 204 204 207 212 211 215 218 219 221 222 226 226 224 223 226 231 224 223 225 229 235 242 237 243 248 251 250 263 285 301 297 297 298 308 310 310
48 233 196 222 211 145 211 228 226 202 204 208 211 210 210 209 213 214 214 218 221 223 222 221 224 224 222 221 222 222 229 228 231 233 235 242 247 251 262 274 278 281 279 285 294 301 305 301 312
187 329 217 302 112 152 211 237 247 185 217 214 210 214 217 217 216 214 213 212 215 220 224 225 228 229 228 228 232 239 239 233 236 240 242 247 252 254 261 268 272 276 280 284 289 296 297 309 315
214 223 229 234 155 94 119 279 229 233 230 232 226 226 223 221 222 217 217 218 219 223 226 228 229 231 231 234 233 235 236 233 231 233 237 242 246 252 262 266 267 271 275 279 285 292 298 302 309
201 219 257 181 170 217 176 256 238 217 230 219 231 227 231 225 227 223 219 221 222 223 224 227 230 230 230 233 233 236 240 244 231 234 240 240 246 250 256 260 264 263 266 273 279 287 289 297 301
211 35 234 247 233 161 224 206 261 139 228 235 235 228 228 225 220 219 218 221 221 222 224 226 227 227 228 230 231 234 238 244 238 234 234 238 240 244 242 244 249 256 262 269 274 277 277 290 305
96 69 34 41 348 235 213 183 237 199 199 228 232 232 229 223 217 219 218 220 220 219 221 224 225 226 227 227 230 230 236 234 231 233 232 230 234 235 236 241 249 254 258 259 271 286 299 314 320
87 120 132 202 217 239 278 195 233 202 220 210 221 225 223 219 216 212 213 216 217 218 221 224 228 229 229 227 226 226 231 232 236 236 234 231 228 231 232 239 244 252 249 260 281 301 319 320 322
189 174 183 176 197 215 55 234 238 222 220 229 238 246 228 211 211 210 211 213 215 218 223 227 230 230 228 225 221 217 226 230 229 234 232 226 224 223 226 228 227 224 225 246 292 305 315 321 325
186 208 221 76 41 95 211 278 300 237 252 235 232 224 219 208 208 208 207 212 217 224 232 236 234 231 227 222 215 211 218 225 227 227 229 222 220 218 219 202 193 193 211 256 289 304 314 320 328
183 181 202 214 163 218 256 266 228 227 249 236 226 215 213 206 207 208 209 216 223 229 231 228 224 223 220 215 209 207 212 216 216 219 217 210 210 207 192 186 190 208 241 276 296 310 319 325 328
185 209 213 213 165 185 183 256 207 209 209 203 224 219 206 203 204 208 212 216 220 221 218 215 209 208 210 206 205 205 203 205 223 215 199 201 192 184 185 191 203 229 260 288 303 314 323 327 325
199 224 213 216 212 244 168 269 219 256 279 235 213 213 209 205 202 207 211 211 210 211 208 205 201 202 203 199 199 203 206 211 224 190 184 180 182 183 187 204 220 243 264 287 310 320 324 326 323